loading
|

OBJECT AD, 59125

Orbit data source: Space-Track

OBJECT AD, 59125 is a satellite in SSO that was launched on Mon, 04 Mar 2024 UTC via an FALCON 9 launch vehicle from the Air Force Western Test Range (AFWTR). Unknown objects in Earth's orbit typically refer to objects detected orbiting the Earth but have not yet been identified or cataloged. These objects could be anything from previously untracked satellites, spent rocket stages, debris from satellite collisions, or even natural meteoroids temporarily captured by Earth's gravity.

Loading next visibility...
Loading greatness...
OBJECT AD details
Identifier
59125, 2024-043AD
Orbit
SSO
Last TLE update9 hours ago
Origin
Flag of TBDSpace Machines (TBD)
ManufacturerSpace Machines
Mission statusOperational
MissionCommercial Technology
Bus & MotorOPTIMUS, Unknown motor
Mass270 kg wet, 270 kg dry
Launch date (UTC)
2024-03-04 (7 months ago)
Launch vehicle
FALCON 9
Launch site
Air Force Western Test Range (AFWTR)
Object typeUnknown
Radar Cross SectionMedium (>0.1 m² and <1 m²)

Expand to show TLE details & history

TLE from 9 hours ago
0 OBJECT AD
1 59125U 24043AD  24261.58995627  .00029717  00000-0  13379-2 0  9992
2 59125  97.4888  24.6804 0011771 329.9853  30.0707 15.20967568 29847
Epoch: 2024-09-17T14:09Z
Definitive object data (Epoch: 2024-09-17T14:09:32.221Z)
Latitude0.00002°
Longitude175.29371°
Altitude499.001 km
Speed7.619 km/s
True Right ascension01h 38m 43s
True Declination0° 00' 00"
Sunlit
Object was in full shadow at TLE epoch
Predictive object data (real-time)
Latitude19.73683°
Longitude-1.6619°
Altitude513.438 km
Speed7.604 km/s
Apparent Right ascension10h 47m 53s
Apparent Declination-30° 30' 48"
Sunlit
Object is in daylight
Predictive observer data (real-time)
Local Sidereal Time15:34:17
Azimuth235.4° WSW
Elevation-6.731°
Doppler factor1
Orbital elements
Apogee507.985 km
Perigee491.793 km
Semi-major axis6,878.026 km
Eccentricity0.0011771
Inclination97.4888°
RAAN24.6804°
Arg. of periapsis329.9853°
True anomaly30.13837°
Mean anomaly30.0707°
Eccentric anomaly30.10453°
Mean motion3.80494 °/min
BSTAR0.0013379
Period94.61 mins
No data available

OBJECT AD Visibility forecast

Observer location: 39.9160978°, -105.1181434

OBJECT AD is not visible in the next 10 days
Span
Click to sort rows by Start time (UTC) header in descending order
Start Az.
Max El. time (UTC)
Max El. Az.
Max El.
End time (UTC)
End Az.